Dewpoint
38 37 36 36 36 35 36 34 34 35 37 37 37 36 37 37 35 35 34 33 33 33
38 38 36 36 36 36 35 34 33 34 35 34 35 33 35 34 31 32 33 32 29 25
37 38 38 36 36 36 34 34 33 33 33 31 28 27 27 26 27 30 25 25 23 22
34 34 35 36 35 34 33 34 33 33 33 25 24 23 23 23 26 24 23 23 22 22
33 34 33 34 34 34 33 33 32 30 28 25 23 23 22 22 24 22 21 22 22 21
33 35 35 35 34 32 32 33 33 34 30 24 23 23 23 23 22 21 22 22 21 22
33 33 32 32 32 32 35 35 34 34 27 25 24 24 22 21 22 22 22 22 23 22
33 34 35 34 35 36 37 36 34 30 23 24 24 22 22 23 23 23 23 23 23 22
34 35 34 35 36 36 36 29 31 25 24 23 22 24 26 29 27 25 24 24 23 22
32 32 32 34 35 35 34 34 26 24 24 24 23 27 28 26 26 24 24 22 21 19
32 32 32 34 33 31 29 28 24 25 24 24 25 23 21 25 22 20 21 18 19 19
31 32 32 33 32 32 32 26 25 24 24 21 19 20 18 19 21 19 18 19 18 18
29 29 29 30 31 31 24 26 24 22 22 21 18 18 17 17 18 17 18 18 18 18
27 26 26 26 26 24 25 23 21 19 21 20 19 17 18 17 17 18 19 18 18 20
Wind_Speed
7 7 10 12 10 10 10 5 0 3 4 5 6 7 5 4 7 8 8 10 10 9
9 11 12 11 9 9 6 6 7 4 4 5 6 6 6 5 6 6 5 4 3 5
8 9 11 10 11 9 7 5 4 4 11 10 6 5 4 4 4 3 2 3 4 8
10 12 12 11 8 5 6 8 8 10 11 8 9 6 5 6 5 3 4 5 6 11
9 10 9 7 6 7 11 8 5 7 10 12 10 7 7 7 3 2 7 9 11 13
10 10 9 10 11 11 10 7 6 9 13 12 9 8 5 3 1 3 8 10 12 13
7 8 10 10 10 12 8 10 12 13 11 7 8 6 1 2 5 9 10 11 12 13
5 8 10 12 14 13 8 10 11 8 6 5 5 3 2 6 10 11 13 13 13 12
7 10 12 13 12 11 6 3 8 9 5 3 3 3 6 10 10 11 13 14 13 13
9 10 12 12 11 8 8 5 7 1 5 5 7 7 7 10 8 11 12 13 14 16
10 12 13 11 10 9 3 5 2 5 5 5 5 9 12 8 8 10 11 14 15 16
11 13 14 12 11 8 8 3 4 4 3 5 6 11 12 12 8 11 14 13 15 16
9 12 13 12 10 5 1 6 6 4 4 6 6 9 12 13 8 12 12 12 14 17
9 11 11 9 4 2 8 6 5 3 2 2 3 6 11 14 10 11 11 13 14 14
Wind_Direction
178 204 221 229 230 235 225 216 231 277 249 291 296 290 283 285 302 311 310 313 322 324
224 231 239 248 241 233 213 218 219 219 271 268 258 261 261 270 295 295 298 315 339 337
286 298 287 269 249 224 229 246 242 259 255 239 234 230 233 254 261 240 253 286 318 326
316 315 296 263 250 260 262 246 249 273 271 249 236 232 231 261 217 242 291 309 316 308
336 317 289 295 297 273 264 258 266 309 306 267 250 246 251 259 229 301 308 297 307 296
357 357 334 304 285 263 231 239 316 309 287 270 272 281 269 226 276 280 286 288 295 290
9 351 326 309 273 260 259 292 307 288 275 296 297 288 215 287 287 290 293 291 290 287
333 316 305 300 295 289 282 309 299 305 326 325 309 235 292 301 301 300 300 294 292 290
317 309 310 303 301 295 289 290 350 322 307 59 8 317 315 328 321 310 304 306 309 303
301 303 310 310 308 308 297 285 277 270 82 48 23 2 2 349 343 328 321 316 309 308
299 309 316 324 320 312 283 305 159 103 61 43 34 17 352 352 345 327 312 311 309 307
312 312 311 312 306 300 286 308 123 95 81 71 26 2 352 348 321 323 318 314 316 314
314 315 309 303 296 293 302 137 123 110 89 64 18 354 353 348 337 325 321 324 321 321
312 314 310 302 300 140 130 128 134 86 100 67 10 345 350 353 344 326 327 325 325 321